User: anonymous   Login
Location: McKinley Crossing
(64.8808°N, 149.6453°W)
Time: 14:58:47
(UTC+00:00)
Language:

DIWATA 2B (PO-101) - Orbit

View from above orbital plane
View from above orbital plane
View from above satellite
View from above satellite

Ground track
Ground track

The orbit data is extracted from the following two-line orbital elements,

1 43678U 18084H   21110.09667286 -.00000012  00000-0  45305-5 0  9994
2 43678  97.9143 235.1063 0008425 240.8808 119.1601 14.91730208134734
Epoch (UTC): 20 April 2021 02:19:12
Eccentricity: 0.0008425
inclination: 97.9143°
perigee height: 586 km
apogee height: 598 km
right ascension of ascending node: 235.1063°
argument of perigee: 240.8808°
revolutions per day: 14.91730208
mean anomaly at epoch: 119.1601°
orbit number at epoch: 13473

The dashed part of the orbit path shows where the satellite is in the earth's shadow,  

DLR